Location: Aalen
(48.8330°N, 10.1000°E)
Time: 05:02:22
(UTC+02:00)

Transit 2A - Pass Details

Date: 01 August 2021
Orbit: 594 x 964 km, 66.7° (Epoch: 27 September)

Event Time Altitude Azimuth Distance (km) Brightness Sun altitude
Rises 17:37:52 0° 311° (NW) 3,286 9.8 31.0°
Reaches altitude 10° 17:40:58 10° 293° (WNW) 2,424 9.6 30.5°
Maximum altitude 17:44:34 18° 253° (WSW) 2,006 10.1 29.9°
Drops below altitude 10° 17:48:21 10° 213° (SSW) 2,564 9.4 29.3°
Sets 17:51:45 0° 195° (SSW) 3,555 9.7 28.7°
